ATLAS H R/B

Satellite information

Favourite Embed

Satellite Type and Status

ROCKET BODYIN ORBIT

Key statistics

Satellite ATLAS H R/B at a glance.

Uptime

15529

Days in orbit

Revolutions

≈ 13.6

Per day

Orbit

LEO

Low Earth Orbit

Inclination

63.3

Latest

Satellite identification and parameters

Extended collection of information and parameters for ATLAS H R/B.

Object identification

Identified? True

Debris? False

Object name: ATLAS H R/B

International designator: 1983-056B

Object number (NORAD): 14113

Object ID (CCSDS): 14113

Country: UNITED STATES OF AMERICA (US)

Current information (Y/N): Y

RCS size: MEDIUM

Orbital parameters

Period: 105.632 minutes

Inclination: 63.3415 deg

SMA: 7402.156 km

Apoapsis: 1101.877 km

Periapsis: 946.166 km

RAAN: 84.6457 deg

Eccentricy: 0.01051794

Argument of periapsis: 125.9533 deg

Mean anomaly: 235.1315 deg

Mean motion: 13.63218275 rev/day

Mean motion (dot): 0.00001185 rev/day2

B* drag term: 0.0015671386 1/REarth

Two-line elements (TLE)

Creation date: Dec. 11, 2025, 7:14 p.m.

Reference frame: TEME

Reference center: EARTH

Epoch: Dec. 11, 2025, 1:20 p.m. UTC

TLE line 0: 0 ATLAS H R/B

TLE line 1: 1 14113U 83056B 25345.55622101 .00001185 00000-0 15671-2 0 9990

TLE line 2: 2 14113 63.3415 84.6457 0105179 125.9533 235.1315 13.63218275320552

Live tracking on map

Real-time ground track for satellite ATLAS H R/B.

In-orbit conjunctions

A list of the most updated potential collisions computed for object ATLAS H R/B.

Target Orbit TCA Probability of collision Miss distance Type
COSMOS 1275 DEB LEO 2025-10-09 05:07:20 0.0001162909 63.0 (m) DEBRIS

Associated space launch

The Parcae satellites were passive ELINT satellites. MSD satellites were dispensers of triplets of ocean surveillance satellites.

ATLAS H R/B was lifted into orbit during the mission ‘Atlas H | Parcae 6A,B,C & MSD 6’, on board a Atlas H space rocket.

The launch took place on June 9, 1983, 11:23 p.m. from Space Launch Complex 3E.

For more information about the launch, click the button.

Launch to space Atlas H | Parcae 6A,B,C & MSD 6
Atlas H | Parcae 6A,B,C & MSD 6

Agency: N/A

Status: Launch Successful

Launch date: June 9, 1983, 11:23 p.m. UTC

Rocket: Atlas H

Launch pad: Space Launch Complex 3E

Location: Vandenberg SFB, CA, USA

...

Latest news about this satellite

There are no fresh news available about this satellite. Check back as we update our databases every day.


Newsletter sign-up

Weekly statistics, charts and insights to help you stay on top of the space industry.